sat.trackr.live / text

‹ back to catalog

STARLINK-32475

NORAD 61728 · 2024-196X

PAYLOAD ACTIVE UNKNOWN

§ Identity

Operator
Country
US
Launch date
2024-10-30
Launch site
AFETR
Launch vehicle
Mass (kg)
RCS (m²)

Purposes: comms

External: N2YO · Heavens-Above · Gunter

§ Orbital elements

Epoch: 2026-09-21T17:55:20.419104Z

Period
93.85 min
Inclination
53.1607°
Eccentricity
0.0001311
Mean motion
15.34389961 rev/d
Perigee alt
461.8 km
Apogee alt
463.6 km
Semi-major
6,840.9 km
B*
2.9802e-5
RAAN
267.8468°
Arg perigee
88.3299°
Mean anomaly
271.7854°
Rev number
10,721

§ Raw data

STARLINK-324751 61728U 24196X   26264.74676411  .00000630  00000+0  29802-4 0  99952 61728  53.1607 267.8468 0001311  88.3299 271.7854 15.34389961107218

JSON: /api/v1/satellites/61728 · /tle

For live sub-satellite position, see the globe view (requires WebGL).

§ Visibility from observer

Set your observer location to see the next 7 days of passes ≥ 10°. The values pass through the URL so the page stays shareable.

No JS? Fill the form by hand. The geolocation button needs JavaScript.